TimeCDT,TemperatureF,Dew PointF,Humidity,Sea Level PressureIn,VisibilityMPH,Wind Direction,Wind SpeedMPH,Gust SpeedMPH,PrecipitationIn,Events,Conditions,WindDirDegrees,DateUTC
1:56 AM,62.1,60.1,93,30.15,10.0,Calm,Calm,-,N/A,,Clear,0,2012-10-13 06:56:00
2:56 AM,60.1,57.9,93,30.14,10.0,NNW,3.5,-,N/A,,Clear,340,2012-10-13 07:56:00
3:56 AM,64.0,61.0,90,30.15,10.0,North,4.6,-,N/A,,Clear,10,2012-10-13 08:56:00
4:56 AM,66.9,61.0,81,30.16,10.0,ENE,6.9,-,N/A,,Clear,60,2012-10-13 09:56:00
5:56 AM,64.9,61.0,87,30.17,10.0,NE,4.6,-,N/A,,Clear,50,2012-10-13 10:56:00
6:56 AM,64.9,60.1,84,30.19,10.0,NE,4.6,-,N/A,,Clear,50,2012-10-13 11:56:00
7:56 AM,68.0,61.0,78,30.20,10.0,ENE,3.5,-,N/A,,Clear,60,2012-10-13 12:56:00
8:56 AM,72.0,62.1,71,30.20,10.0,East,10.4,-,N/A,,Clear,90,2012-10-13 13:56:00
9:56 AM,77.0,63.0,62,30.22,10.0,East,8.1,-,N/A,,Clear,90,2012-10-13 14:56:00
10:56 AM,81.0,64.0,56,30.20,10.0,East,6.9,-,N/A,,Clear,100,2012-10-13 15:56:00
11:56 AM,82.0,63.0,52,30.19,10.0,ESE,8.1,-,N/A,,Clear,120,2012-10-13 16:56:00
12:56 PM,84.9,64.0,49,30.16,10.0,SE,6.9,-,N/A,,Clear,130,2012-10-13 17:56:00
1:56 PM,84.0,64.0,51,30.13,10.0,South,6.9,-,N/A,,Partly Cloudy,190,2012-10-13 18:56:00
2:56 PM,84.0,64.0,51,30.12,10.0,Variable,6.9,-,N/A,,Mostly Cloudy,0,2012-10-13 19:56:00
3:56 PM,82.9,63.0,51,30.11,10.0,South,10.4,-,N/A,,Partly Cloudy,180,2012-10-13 20:56:00
4:56 PM,81.0,64.0,56,30.11,10.0,SSW,6.9,-,N/A,,Clear,200,2012-10-13 21:56:00
5:56 PM,77.0,66.9,71,30.11,10.0,South,5.8,-,N/A,,Clear,190,2012-10-13 22:56:00
9:56 PM,73.0,66.9,81,30.14,10.0,East,4.6,-,N/A,,Partly Cloudy,80,2012-10-14 02:56:00
10:56 PM,72.0,66.9,84,30.13,10.0,East,5.8,-,N/A,,Partly Cloudy,90,2012-10-14 03:56:00
11:56 PM,71.1,66.9,87,30.11,10.0,East,5.8,-,N/A,,Clear,100,2012-10-14 04:56:00